Location: Chuathbaluk
(61.5726°N, 159.2454°W)
Time: 12:17:21
(UTC+00:00)

N. Korean satellite - Pass Details

Date: 05 November 2020
Orbit: 453 x 503 km, 97.2° (Epoch: 04 December)

Event Time Altitude Azimuth Distance (km) Brightness Sun altitude
Rises 17:04:23 0° 14° (NNE) 2,487 10.1 -8.9°
Reaches altitude 10° 17:06:28 10° 9° (N) 1,607 9.1 -8.7°
Maximum altitude 17:09:48 51° 293° (WNW) 581 6.6 -8.3°
Drops below altitude 10° 17:13:09 10° 216° (SW) 1,601 9.0 -7.9°
Sets 17:15:13 0° 212° (SSW) 2,476 10.0 -7.7°
